CZ-4C R/B, 65234

Orbit data source: Space-Track

CZ-4C R/B, 65234 is space debris in LEO originally from a launch on Sun, 17 Aug 2025 UTC launched from the Xichang Space Center, China (XSC). Debris objects in space refer to the collection of defunct objects orbiting the Earth. Examples of debris include non-operational satellites, rocket bodies, and fragments generated from explosions, collisions, or faulty payload assembly.

Not visible in the next 10 days
Identifier
65234, 2025-177B
Orbit
LEO
Country
Flag of CNCN / PRC
Related business
Manufacturer
SAST
Mission
Spacecraft
Bus & Motor
CZ-4 STAGE 3, Unknown motor
Mass
~1,000 kg wet, ~1,000 kg dry
Launch date (UTC)
2025-08-17 (10 months ago)
Launch vehicle
Unknown
Launch site
Xichang Space Center, China (XSC)
Object type
Payload
Rocket body
Debris
Shape & HBR
Cyl, 8.0 m
Radar Cross Section
14.536 m², Large (>1 m²)

Expand to show TLE details & history
Last TLE update: 11 hours ago

TLE from 11 hours ago
0 CZ-4C R/B
1 65234U 25177B   26171.38417611  .00000739  00000-0  29224-4 0  9992
2 65234  10.9929 177.2539 0149931 116.5853 244.9822 14.57947478 44861
Epoch: 2026-06-20T09:13Z
TLE epoch observation values (Epoch: 2026-06-20T09:13:12.815Z)
Latitude
-0.00001°
Longitude
130.35089°
Altitude
743.09 km
Speed
7.462 km/s
True Right ascension
11h 49m 00s
True Declination
0° 00' 00"
Sunlit
Object was in daylight at epoch
Visualization orbit readout
Latitude
Unknown
Longitude
Unknown
Altitude
Unknown
Speed
Unknown
Apparent Right ascension
Unknown
Apparent Declination
Unknown
Sunlit
N/A
Visualization observer readout
Local Sidereal Time
07:17:02
Azimuth
Unknown
Elevation
Unknown
Doppler factor
Unknown
Orbital elements
Apogee altitude
811.911 km
Perigee altitude
599.493 km
Semi-major axis
7,083.839 km
Eccentricity
0.01499
Inclination
10.9929°
RAAN
177.2539°
Arg. of periapsis
116.5853°
True anomaly
243.43775°
Mean anomaly
244.9822°
Eccentric anomaly
244.20873°
Mean motion
3.64032 °/min
Orbital period
98.89 mins
BSTAR
0.000029224
Loading maneuver chart data...
Computing Atmospheric mass density...
Loading historical data...
Loading historical data...
Loading historical data...
Loading historical data...
Loading historical data...
Loading historical data...
Loading historical data...
Other satellites on launch #177 in the year 2025 (2025-08-17 UTC)

Documentation

Showing up to 5 results
|